Location: Lincoln Park Homes
(42.6431°N, 73.7603°W)
Time: 18:51:42
(UTC+00:00)

Daily predictions for brighter satellites

Satellite Brightness Start Highest point End
(mag) Time Altitude Azimuth Time Altitude Azimuth Time Altitude Azimuth
Okean-O 2.6 22:51:11 10° SSE 22:55:37 85° ENE 23:00:05 10° NNW
Starlink-5 full stack 3.8 22:55:39 10° WNW 22:57:59 39° SW 23:00:28 10° SSE
Starlink-5 placeholder 3.8 22:56:09 10° WNW 22:58:28 38° SW 23:00:55 10° SSE
Cosmos 1825 4.0 22:55:28 10° SW 22:58:57 36° WNW 23:02:27 10° N
COSMOS 2406 4.1 22:54:26 10° NNW 23:00:00 55° WSW 23:05:32 10° S
Cosmos 1408 Rocket 4.5 22:56:23 10° SSW 23:00:36 53° W 23:04:49 10° N
BREEZE-M DEB (TANK) 4.1 22:58:55 10° W 23:01:46 28° NNW 23:03:59 10° NE
Ariane Rocket 4.3 22:58:25 10° ESE 23:02:00 20° ENE 23:05:37 10° NNE
Cosmos 2297 4.2 23:00:54 10° S 23:06:05 38° ESE 23:11:16 10° NE
Cosmos 1943 Rocket 3.7 23:04:38 10° SE 23:07:28 14° E 23:10:17 10° ENE
Cosmos 2173 Rocket 4.1 23:03:08 10° S 23:09:24 66° E 23:15:43 10° NNE
YAOGAN 6 3.3 23:06:57 10° S 23:10:26 57° W 23:13:55 10° NNW
Cosmos 2228 Rocket 3.1 23:07:16 10° N 23:11:48 77° E 23:16:21 10° SSE
Cosmos 1238 Rocket 4.1 23:10:27 10° SSE 23:16:05 51° E 23:22:23 10° NNE
STARLINK-46 2.8 23:14:38 10° WNW 23:16:54 51° SW 23:19:03 10° SE
Cosmos 968 Rocket 3.5 23:11:55 10° NNW 23:17:03 57° ENE 23:22:10 10° SE
Cosmos 2100 Rocket 4.1 23:14:56 10° S 23:21:18 86° E 23:27:40 10° N
Lacrosse 4 Rocket 1.9 23:17:49 10° S 23:21:40 38° ESE 23:25:38 10° NE
Cosmos 292 Rocket 3.9 23:19:32 10° S 23:24:13 54° ESE 23:28:54 10° NNE
BREEZE-M DEB (TANK) 3.9 23:22:07 10° NW 23:24:26 29° NNE 23:27:16 15° ENE
STARLINK-26 3.1 23:22:03 10° SW 23:25:30 72° SE 23:28:05 17° ENE
Cosmos 2369 Rocket 3.6 23:23:32 10° SE 23:26:55 17° E 23:28:03 16° E
Cosmos 2061 Rocket 4.0 23:22:04 10° S 23:28:25 65° E 23:34:45 10° NNE
Cosmos 1503 Rocket 4.0 23:23:10 10° NNW 23:28:27 60° ENE 23:33:37 10° SSE
STARLINK-80 3.9 23:27:22 10° WSW 23:31:08 55° NNW 23:34:16 14° NE
Cosmos 2082 Rocket 2.3 23:27:50 10° NNW 23:33:29 83° WSW 23:39:09 10° SSE
USA 229 DEB 4.2 23:29:30 10° S 23:35:17 35° ESE 23:40:34 13° NE
USA 229 4.2 23:29:38 10° S 23:35:24 35° ESE 23:40:36 13° NE
USA 234 4.4 23:31:13 13° ENE 23:35:45 29° NNE 23:41:09 10° NW
COSMO-SKYMED 1 3.7 23:33:09 10° N 23:37:18 45° WNW 23:41:26 10° SW
STARLINK-75 3.9 23:35:36 10° SSW 23:38:45 34° SE 23:39:53 26° E
Cosmos 1805 Rocket 3.5 23:34:23 10° S 23:38:46 81° E 23:43:10 10° N
Cosmos 1459 Rocket 4.2 23:35:30 10° SSW 23:41:32 72° W 23:47:35 10° N
STARLINK-22 4.2 23:38:47 10° SSW 23:41:48 28° SE 23:42:32 26° ESE
Cosmos 1782 3.2 23:37:56 10° NNW 23:41:56 67° W 23:45:54 10° S
NOSS 3-1 (A) 4.4 23:38:51 10° SSE 23:42:48 21° ESE 23:43:25 20° E
STARLINK-58 4.3 23:39:55 10° SSW 23:43:00 28° SE 23:43:42 26° ESE
STARLINK-41 4.1 23:40:05 10° SSW 23:43:12 31° SE 23:43:59 28° ESE
USA 116 3.9 23:40:04 10° N 23:43:41 70° WNW 23:47:46 10° SSW
ATLAS 5 CENTAUR R/B 4.3 23:39:11 10° NW 23:44:30 33° WSW 23:50:24 10° S
STARLINK-62 4.2 23:41:31 10° SSW 23:44:41 30° SE 23:45:23 27° ESE
Sich 1 2.9 23:42:21 10° S 23:46:38 71° E 23:50:55 10° NNE
Cosmos 1725 Rocket 3.9 23:40:51 10° S 23:46:57 70° E 23:53:07 10° NNE
Cosmos 1862 3.2 23:43:33 10° S 23:47:30 62° E 23:51:28 10° NNE
STARLINK-34 4.1 23:44:21 10° SSW 23:47:32 31° SE 23:48:07 29° ESE
Cosmos 1707 Rocket 3.6 23:44:35 10° N 23:48:58 59° E 23:53:22 10° SSE
ADEOS Rocket 3.5 23:41:29 10° NNE 23:49:12 76° ESE 23:56:57 10° S
SL-4 R/B 2.8 23:45:23 10° NW 23:49:57 45° NNE 23:51:51 29° ENE
STARLINK-61 3.6 23:46:12 10° SW 23:50:00 54° SE 23:51:27 33° ENE
CRYOSAT 2 4.5 23:45:45 10° SSE 23:50:28 52° E 23:55:14 10° N
Cosmos 1833 Rocket 4.3 23:47:48 10° NW 23:52:56 37° WSW 23:58:01 10° S
Cosmos 1802 Rocket 4.3 23:47:20 10° SSW 23:53:33 72° W 23:59:54 10° N
Abrixas rocket 1.9 23:50:55 10° WNW 23:53:51 66° NNE 23:54:16 56° ENE
